Flag for Canada Weather past 2 weeks in Fort Smith, Northwest Territories, Canada

Now
54 °F

Fog.


Feels Like: 52 °F
Forecast: 47 / 55 °F
Wind: 6 mph from West

Location: Fort Smith

Current Time: Sep 1, 2014 at 12:55:30 PM

Latest Report: Sep 1, 2014 at 12:00 PM


Visibility: 6 mi

Pressure: 29.65 "Hg

Humidity: 94%

Dew point: 52 °F

Location of Fort SmithLocation

Historic Weather in Fort Smith — Graph

°F

Fort Smith temperature yesterday

Maximum temperature yesterday: 63 °F (at 4:00 PM)
Minimum temperature yesterday: 45 °F (at 5:00 AM)
Average temperature yesterday: 53 °F

Past Weeks' High & Low Weather Summary

 TemperatureHumidityPressure
High75 °F (Aug 17, 2:00 PM)100% (Aug 19, 12:00 AM)30.42 "Hg (Aug 19, 12:00 AM)
Low34 °F (Aug 22, 7:00 AM)27% (Aug 22, 2:00 PM)29.51 "Hg (Aug 30, 11:00 AM)
Average55 °F73%29.88 "Hg
* Reported Aug 17 11:00 AM — Sep 1 11:53 AM, Fort Smith, Weather by CustomWeather, © 2014

Note: Actual official high and low records may vary slightly from our data, if they occured in-between our weather recording intervals... More about our weather records

Advertising

Fort Smith weather history for previous 24 hours

 ConditionsComfort  
Time TempWeatherWind HumidityBarometerVisibility
11:53 AM
Sep 1
N/AFog.7 mphN/AN/A6 mi
11:00 AM54 °FFog.6 mph88%29.65 "Hg4 mi
10:00 AM52 °FFog.7 mph94%29.66 "Hg1 mi
9:00 AM52 °FFog.7 mph94%29.65 "Hg1 mi
8:00 AM52 °FFog.6 mph94%29.65 "Hg3 mi
7:00 AM52 °FMostly cloudy.5 mph94%29.65 "Hg15 mi
6:00 AM52 °FMostly cloudy.2 mph94%29.65 "Hg15 mi
5:00 AM52 °FPassing clouds.3 mph94%29.65 "Hg15 mi
4:00 AM52 °FPartly cloudy.3 mph94%29.64 "Hg15 mi
3:00 AM52 °FPassing clouds.3 mph94%29.64 "Hg15 mi
2:00 AM54 °FOvercast.2 mph88%29.63 "Hg15 mi
1:00 AM54 °FOvercast.2 mph88%29.63 "Hg15 mi
12:00 AM52 °FOvercast.2 mph94%29.63 "Hg15 mi
11:00 PM
Aug 31
54 °FPassing clouds.3 mph82%29.63 "Hg15 mi
10:00 PM55 °FPassing clouds.No wind82%29.63 "Hg15 mi
9:00 PM55 °FPartly sunny.No wind88%29.63 "Hg15 mi
8:00 PM57 °FPartly sunny.2 mph82%29.62 "Hg15 mi
7:00 PM59 °FPartly sunny.5 mph72%29.62 "Hg15 mi
6:00 PM59 °FPartly sunny.6 mph72%29.60 "Hg15 mi
5:00 PM59 °FPartly sunny.7 mph72%29.60 "Hg15 mi
4:00 PM63 °FPartly sunny.No wind68%29.60 "Hg15 mi
3:00 PM59 °FPartly sunny.2 mph68%29.60 "Hg15 mi
2:00 PM55 °FPartly sunny.2 mph82%29.61 "Hg15 mi
1:00 PM54 °FLow clouds.6 mph88%29.60 "Hg15 mi
12:54 PMN/ALow clouds.5 mphN/AN/A15 mi
12:00 PM54 °FLow clouds.3 mph88%29.60 "Hg12 mi
Weather by CustomWeather, © 2014

See weather overviewHow to use our weather pages